Regional Weather Roundup
Issued by NWS

Home | Current Version | Previous Version | Text Only | Print | Product List | Glossary On
Versions: 1 2 3 4 5 6 7 8 9 10 11 12 13 14 15 16 17 18 19 20 21 22 23 24 25 26 27 28 29 30 31 32 33 34 35 36 37 38 39 40 41 42 43 44 45 46 47 48 49 50
000
ASUS44 KLIX 251911
RWRLA
LOUISIANA WEATHER ROUNDUP
NATIONAL WEATHER SERVICE NEW ORLEANS LA
200 PM CDT SAT APR 25 2015

NOTE: "FAIR" INDICATES FEW OR NO CLOUDS BELOW 12,000 FEET WITH NO
      SIGNIFICANT WEATHER AND/OR OBSTRUCTIONS TO VISIBILITY.
      SKY/WX - SKY CONDITION AND SIGNIFICANT WEATHER.
      TMP - AIR TEMPERATURE.    DP   - DEWPOINT TEMPERATURE.
      RH  - RELATIVE HUMIDITY.  PRES - PRESSURE.
      HX  - HEAT INDEX.         WCI  - WIND CHILL INDEX.

*  THESE STATIONS ARE NOT NWS OR FAA STATIONS AND ARE NOT UNDER
   NWS QUALITY CONTROL.

LAZ040-048-061>063-065-066-069-252000-
SOUTHEAST LOUISIANA

CITY           SKY/WX    TMP DP  RH WIND       PRES   REMARKS
N.O. AUDUBON     N/A     70  70 100 MISG        N/A
N.O. INTL ARPT TSTM      70  67  90 W22G30    29.92R FOG
N.O. LAKEFRONT RAIN      73  69  87 NW33G45   29.92R VSB 1
SLIDELL        TSTM      71  70  96 NW9G18    29.93R FOG
BATON ROUGE    LGT RAIN  70  67  90 SE9       29.79F
BOOTHVILLE     CLOUDY    82  76  81 SW14      29.81R
BELLE CHASSE   TSTM      70  67  90 NW14G37   29.89R
BOGALUSA*      TSTM      73  68  84 NW10G18   29.85R
GALLIANO*      LGT RAIN  79  70  73 NW20G44   29.89R
NEW ROADS*     FAIR      72  69  91 SE13      29.77F
GONZALES*      TSTM     N/A N/A N/A S10       29.90R
HAMMOND*       TSTM      70  66  88 SW5       29.91R
HOUMA*         PTSUNNY   70  66  88 NW15G26   29.89
PORT FOURCHON* PTCLDY    81  75  83 W14G20    29.89R

$$

LAZ041-044-053-054-252000-
SOUTHWEST LOUISIANA

CITY           SKY/WX    TMP DP  RH WIND       PRES   REMARKS
LAKE CHARLES   CLOUDY    72  68  87 SE15      29.77F
LAFAYETTE      LGT RAIN  69  67  93 SE9G18    29.79F FOG
PATTERSON      CLOUDY    68  64  88 NE6       29.88F
SALT POINT       N/A     69  67  93 VRB5      29.84F
NEW IBERIA     LGT RAIN  70  67  90 VRB5      29.84F
CHENAULT AIRPK PTSUNNY   72  66  83 SE15      29.79R

$$

LAZ027-028-252000-
CENTRAL LOUISIANA

CITY           SKY/WX    TMP DP  RH WIND       PRES   REMARKS
FORT POLK      PTSUNNY   80  67  65 S9        29.73F
ALEXANDRIA INT CLOUDY    79  71  76 S9        29.70F
ALEXANDRIA     LGT RAIN  79  68  69 S14       29.71F

$$

LAZ001-002-252000-
NORTHWEST LOUISIANA

CITY           SKY/WX    TMP DP  RH WIND       PRES   REMARKS
SHREVEPORT     MOSUNNY   86  64  47 W15       29.66F
BARKSDALE AFB  MOSUNNY   86  65  50 SW12G18   29.66F
DTN SHREVEPORT SUNNY     84  65  52 SW13      29.66F

$$

LAZ014-016-252000-
NORTHEAST LOUISIANA

CITY           SKY/WX    TMP DP  RH WIND       PRES   REMARKS
MONROE         PTSUNNY   81  72  74 SW17G24   29.68F
TALLULAH       CLOUDY    77  69  76 VRB6      29.70S

$$




USA.gov is the U.S. government's official web portal to all federal, state and local government web resources and services.